Weather in Iultin

Russia / Chukotka Autonomous Okrug     67°52′20″N   178°43′48″W
temp.,
°C
wind,
m/s
gust,
m/s
humid.,
%
clouds,
%
prec.,
mm/h
press.,
hPa
HPBL,
m
14 may, fri
fri1400:00−3sw23100100 0.0 101975
03:00−4sw23100100 0.0 101982
06:00−3sw23100100 0.0 1019141
09:00−2sw2399100 0.0 1019179
12:00−1sw2399100 0.0 1019155
15:000sw22100100 0.0 1018107
18:00−1sw229965 0.0 101942
21:00−2wsw119993 0.0 101920
15 may, sat
sat1500:00−3wsw1199100 0.0 102020
03:00−3wsw1197100 0.0 102023
06:00−2wsw1193100 0.0 1020220
09:00−1wnw1193100 0.0 1020251
12:000nnw01100100 0.0 101963
15:000ne11100100 0.0 101977
18:00−1nne1296100 0.0 1020105
21:00−5n1196100 0.0 102110
16 may, sun
sun1600:00−7nnw1195100 0.0 102110
03:00−8nnw1195100 0.0 102110
06:00−6nne119674 0.0 102214
09:00−3ne119585 0.0 1021214
12:00−2ene119399 0.0 1021364
15:00−1ene1188100 0.0 1021334
18:00−1e1190100 0.0 1021142
21:00−3e1187100 0.0 102210
17 may, mon
mon1700:00−3e1186100 0.0 102110
03:00−4e1193100 0.1 102110
06:00−4ese1192100 0.1 102074
09:00−3se1190100 0.1 1019265
12:00−2sse228997 0.1 1019412
15:00−2sse2287100 0.1 1017453
18:00−2sse229291 0.1 1017136
21:00−6s119887 0.0 101710
18 may, tue
tue1800:00−4s2298100 0.1 101656
03:00−5ssw349998 0.0 1015117
06:00−5ssw239857 0.1 101597
09:00−4sw229399 0.0 1015131
12:00−3sw2389100 0.0 1014218
15:00−1sw2389100 0.0 1014253
18:00−2ssw1196100 0.0 101317
21:00−6sw119942 0.0 101410